This is the latest recevied weather packets stored in our database for station/object K5KHP. If no packets are shown the sender has not sent any weather packets the latest 10 day(s).
| Time | Temp. | Humidity | Pressure | Rain* | Wind** | Luminosity | Snow |
|---|---|---|---|---|---|---|---|
| 1778098228 | 20° C | 67% | 1017 hPa | 0 mm | - | 671 W/m² | - |
| 1778097924 | 20° C | 70% | 1017.3 hPa | 0 mm | - | 672 W/m² | - |
| 1778097621 | 20° C | 69% | 1017.3 hPa | 0 mm | - | 667 W/m² | - |
| 1778097318 | 20° C | 70% | 1017.3 hPa | 0 mm | - | 679 W/m² | - |
| 1778097009 | 20° C | 70% | 1017.4 hPa | 0 mm | - | 629 W/m² | - |
| 1778096707 | 20° C | 71% | 1017.3 hPa | 0 mm | - | 595 W/m² | - |
| 1778096403 | 20.56° C | 69% | 1017.3 hPa | 0 mm | - | 597 W/m² | - |
| 1778096101 | 20° C | 71% | 1017.3 hPa | 0 mm | - | 626 W/m² | - |
| 1778095797 | 20.56° C | 69% | 1017.4 hPa | 0 mm | - | 638 W/m² | - |
| 1778095494 | 20° C | 71% | 1017.4 hPa | 0 mm | - | 639 W/m² | - |
| 1778095190 | 20° C | 69% | 1017.4 hPa | 0 mm | - | 650 W/m² | - |
| 1778094887 | 20° C | 71% | 1017.6 hPa | 0 mm | - | 636 W/m² | - |
| 1778094583 | 20° C | 71% | 1017.5 hPa | 0 mm | - | 514 W/m² | - |
| 1778094280 | 20° C | 70% | 1017.6 hPa | 0 mm | - | 620 W/m² | - |
| 1778093977 | 20° C | 70% | 1017.6 hPa | 0 mm | - | 636 W/m² | - |
| 1778093674 | 20° C | 70% | 1017.4 hPa | 0 mm | - | 667 W/m² | - |
| 1778093371 | 20° C | 70% | 1017.6 hPa | 0 mm | - | 729 W/m² | - |
| 1778093068 | 20° C | 71% | 1017.5 hPa | 0 mm | - | 746 W/m² | - |
| 1778092765 | 19.44° C | 71% | 1017.6 hPa | 0 mm | - | 736 W/m² | - |
| 1778092460 | 19.44° C | 71% | 1017.7 hPa | 0 mm | - | 703 W/m² | - |
| 1778092158 | 20° C | 69% | 1017.9 hPa | 0 mm | - | 689 W/m² | - |
| 1778091855 | 20° C | 69% | 1017.6 hPa | 0 mm | - | 700 W/m² | - |
| 1778091553 | 20° C | 68% | 1018 hPa | 0 mm | - | 664 W/m² | - |
| 1778091250 | 20° C | 68% | 1017.9 hPa | 0 mm | - | 661 W/m² | - |
| 1778090947 | 20° C | 68% | 1017.9 hPa | 0 mm | - | 668 W/m² | - |
* Rain latest hour (hover to see other rain measurements)
** Current wind speed in m/s (hover to see current wind gust speed)